Regional Weather Roundup
Issued by NWS Nashville, TN

Home | Current Version | Previous Version | Text Only | Print | Product List | Glossary On
Versions: 1 2 3 4 5 6 7 8 9 10 11 12 13 14 15 16 17 18 19 20 21 22 23 24 25 26 27 28 29 30 31 32 33 34 35 36 37 38 39 40 41 42 43 44 45 46 47 48 49 50
000
ASUS44 KOHX 301600
RWROHX
MIDDLE TENNESSEE HOURLY WEATHER ROUNDUP
NATIONAL WEATHER SERVICE NASHVILLE TN
1000 AM CST FRI JAN 30 2015

NOTE: "FAIR" INDICATES FEW OR NO CLOUDS BELOW 12,000 FEET WITH
NO SIGNIFICANT WEATHER AND/OR OBSTRUCTIONS TO VISIBILITY.

* THESE REPORTS ARE NOT UNDER NWS QUALITY CONTROL AND MAY NOT
  REPORT WEATHER SUCH AS PRECIPITATION AND FOG.


TNZ005>011-023>034-057-059-062>066-078-080-301700
...NORTHERN MIDDLE TENNESSEE...

CITY           SKY/WX    TMP DP  RH WIND       PRES   REMARKS
CLARKSVILLE    CLOUDY    37  25  61 N13       30.51R WCI  29
CROSSVILLE     PTSUNNY   33  21  61 N14G22    30.37R WCI  23
NASHVILLE      MOSUNNY   41  21  44 N9G20     30.49R
SPARTA         PTSUNNY   37  23  56 N12       30.42R WCI  30
$$
TNZ056-058-060-061-075>077-079-093>097-301700
...SOUTHERN MIDDLE TENNESSEE...

CITY           SKY/WX    TMP DP  RH WIND       PRES   REMARKS
COLUMBIA       PTSUNNY   37  25  60 N7        30.47S WCI  32
MCMINNVILLE    PTSUNNY   36  25  64 N12       30.43R WCI  27
SHELBYVILLE    CLOUDY    37  25  60 N10       30.48R WCI  30
TULLAHOMA      PTSUNNY   34  21  60 N12       30.45R WCI  25
WINCHESTER     CLOUDY    36  25  64 N13       30.45R WCI  27
$$


...KEY TO REMARKS...
VSB - VISIBILITY IN MILES
WCI - WIND CHILL INDEX
HX  - HEAT INDEX



USA.gov is the U.S. government's official web portal to all federal, state and local government web resources and services.